Location: Baix
(44.7118°N, 4.7648°E)
Time: 18:40:17
(UTC+00:00)

Cosmos 2297 Rocket - Pass Details

Date: 07 August 2020
Orbit: 838 x 845 km, 71.0° (Epoch: 23 September)

Event Time Altitude Azimuth Distance (km) Brightness Sun altitude
Exits shadow 02:27:52 25° 262° (W) 1,652 3.3 -18.8°
Maximum altitude 02:30:16 35° 306° (NW) 1,341 3.2 -18.5°
Drops below altitude 10° 02:35:24 10° 11° (N) 2,466 5.5 -17.9°
Sets 02:38:05 0° 20° (NNE) 3,406 6.6 -17.6°
